Moses Lake, WA

5:54 AM PDT on April 29, 2017 (GMT -0700)
Grant County International

Weather History for KMWH - April, 2015

Change the Weather History Date:

Friday, April 10, 2015

  Actual Average Record
Temperature  
Mean Temperature 49 °F 49 °F  
Max Temperature 63 °F 62 °F 78 °F (1985)
Min Temperature 35 °F 36 °F 28 °F (1999)
Degree Days  
Heating Degree Days 16 16  
Month to date heating degree days 180 170  
Since 1 July heating degree days 4455 5342  
Cooling Degree Days 0 0  
Month to date cooling degree days 0 0  
Year to date cooling degree days 0 0  
Moisture  
Dew Point 33 °F    
Average Humidity 58    
Maximum Humidity 92    
Minimum Humidity 23    
Precipitation  
Precipitation 0.00 in 0.03 in 0.33 in (1998)
Month to date precipitation 0.21 0.25  
Year to date precipitation 2.57 2.97  
Sea Level Pressure  
Sea Level Pressure 29.87 in    
Wind  
Wind Speed 10 mph (SW)    
Max Wind Speed 22 mph    
Max Gust Speed 30 mph    
Visibility 10 miles    
Events      
T = Trace of Precipitation, MM = Missing Value Source: NWS Daily Summary

Daily Weather History Graph

Daily Weather History Graph

Search for Another Location

Airport or City:

Trip Planner

Search our weather history database for the weather conditions in past years. The results will help you decide how hot, cold, wet, or windy it might be!

Date:

Astronomy

Apr. 10, 2015 Rise Set
Actual Time 6:18 AM PDT 7:39 PM PDT
Civil Twilight 5:47 AM PDT 8:10 PM PDT
Nautical Twilight 5:09 AM PDT 8:49 PM PDT
Astronomical Twilight 4:28 AM PDT 9:30 PM PDT
Moon 12:57 AM PDT (4/10) 10:29 AM PDT (4/10)
Length of Visible Light 14h 23m
Length of Day
13h 20m
Waning Gibbous, 65% of the Moon is Illuminated
Apr 10
Waning Gibbous
Apr 11
Last Quarter
Apr 18
New
Apr 25
First Quarter
May 3
Full

Hourly Weather History & Observations

Time (PDT) Temp. Windchill Dew Point Humidity Pressure Visibility Wind Dir Wind Speed Gust Speed Precip Events Conditions
12:52 AM 39.0 °F 35.7 °F 35.1 °F 86% 29.99 in 10.0 mi North 4.6 mph - N/A   Clear
1:52 AM 36.0 °F 30.3 °F 34.0 °F 93% 29.99 in 10.0 mi North 6.9 mph - N/A   Clear
2:52 AM 37.0 °F 32.4 °F 34.0 °F 89% 29.98 in 10.0 mi NNE 5.8 mph - N/A   Clear
3:52 AM 36.0 °F 31.1 °F 34.0 °F 93% 29.96 in 10.0 mi North 5.8 mph - N/A   Clear
4:52 AM 35.1 °F 32.2 °F 33.1 °F 92% 29.96 in 10.0 mi North 3.5 mph - N/A   Clear
5:52 AM 35.1 °F 31.0 °F 33.1 °F 92% 29.96 in 10.0 mi North 4.6 mph - N/A   Clear
6:52 AM 36.0 °F 32.1 °F 33.1 °F 89% 29.96 in 10.0 mi NNE 4.6 mph - N/A   Clear
7:52 AM 41.0 °F 38.0 °F 36.0 °F 82% 29.95 in 10.0 mi NE 4.6 mph - N/A   Clear
8:52 AM 46.0 °F - 37.9 °F 73% 29.94 in 10.0 mi Calm Calm - N/A   Clear
9:52 AM 48.9 °F - 39.0 °F 69% 29.94 in 10.0 mi Calm Calm - N/A   Partly Cloudy
10:52 AM 53.6 °F - 39.2 °F 58% 29.91 in 10.0 mi Calm Calm - N/A   Scattered Clouds
11:52 AM 57.9 °F - 39.0 °F 49% 29.91 in 10.0 mi South 5.8 mph - N/A   Clear
12:52 PM 59.0 °F - 39.0 °F 48% 29.88 in 10.0 mi South 8.1 mph - N/A   Clear
1:52 PM 62.1 °F - 37.0 °F 39% 29.85 in 10.0 mi South 15.0 mph - N/A   Clear
2:52 PM 62.6 °F - 35.6 °F 37% 29.81 in 10.0 mi South 13.8 mph - N/A   Clear
3:52 PM 63.0 °F - 35.1 °F 35% 29.81 in 10.0 mi South 13.8 mph - N/A   Clear
4:52 PM 63.0 °F - 36.0 °F 37% 29.79 in 10.0 mi South 13.8 mph - N/A   Clear
5:52 PM 62.1 °F - 24.1 °F 23% 29.76 in 10.0 mi SSW 18.4 mph - N/A   Clear
6:52 PM 59.0 °F - 26.1 °F 28% 29.74 in 10.0 mi SW 11.5 mph - N/A   Clear
7:52 PM 57.9 °F - 26.1 °F 30% 29.73 in 10.0 mi SW 12.7 mph - N/A   Scattered Clouds
8:52 PM 57.0 °F - 19.9 °F 24% 29.75 in 10.0 mi SSW 17.3 mph 21.9 mph N/A   Overcast
9:52 PM 55.9 °F - 25.0 °F 30% 29.74 in 10.0 mi SSW 15.0 mph - N/A   Overcast
10:52 PM 55.0 °F - 28.0 °F 35% 29.74 in 10.0 mi SW 15.0 mph - N/A   Overcast
11:52 PM 52.0 °F - 33.1 °F 49% 29.74 in 10.0 mi SW 18.4 mph 26.5 mph N/A   Overcast